Hourly Data Report for November 01, 2019

All times are specified in Local Standard Time (LST). Add 1 hour to adjust for Daylight Saving Time where and when it is observed.

SEPT-ILES
QUEBEC
Current Station Operator: ECCC - MSC

50°13'00.000" N
66°15'00.000" W
52.60 m
7047914
71279
XZV

Download Data

Hourly Data (November 2019)
Hourly Data Report for November 1, 2019
TIME Temp Definition
°C
Dew Point Definition
°C
Rel Hum Definition
%
Wind Dir Definition
10's deg

Wind Spd Definition
km/h
Visibility Definition
km
Stn Press Definition
kPa
Hmdx Definition


Wind Chill Definition


Weather Definition


00:00 3.4 2.4 93 1 10   99.61     LegendNANA
01:00 3.4 2.1 91 2 15   99.50     LegendNANA
02:00 3.2 2.0 92 2 16   99.47     LegendNANA
03:00 2.9 1.7 92 2 19   99.40     LegendNANA
04:00 2.6 1.6 93 2 17   99.30     LegendNANA
05:00 2.5 1.7 94 4 14   99.22     LegendNANA
06:00 2.8 1.9 94 4 11   99.05     LegendNANA
07:00 2.6 2.2 97 3 2   99.00     LegendNANA
08:00 2.7 2.4 98 4 7   98.86     LegendNANA
09:00 3.3 2.9 97 7 11   98.61     LegendNANA
10:00 3.6 3.0 95 6 18   98.24     LegendNANA
11:00 4.3 3.7 96 6 18   98.02     LegendNANA
12:00 4.7 4.0 95 8 18   97.87     LegendNANA
13:00 4.8 4.1 96 13 14   97.91     LegendNANA
14:00 6.1 4.9 92 16 14   97.89     LegendNANA
15:00 5.8 4.9 94 24 21   97.97     LegendNANA
16:00 4.2 3.1 92 26 17   98.24     LegendNANA
17:00 4.3 3.6 96 26 9   98.36     LegendNANA
18:00 4.9 3.2 89 24 19   98.48     LegendNANA
19:00 4.9 3.3 89 24 19   98.60     LegendNANA
20:00 5.1 3.7 91 25 22   98.76     LegendNANA
21:00 2.9 1.3 89 29 14   99.00     LegendNANA
22:00 1.2 -1.3 83 29 18   99.26     LegendNANA
23:00 1.2 -1.7 81 29 16   99.50     LegendNANA

Notes on Data Quality.

Legend

  • E = Estimated
  • M = Missing
  • NA = Not Available
Date modified: